Location: Morosaglia
(42.4360°N, 9.3069°E)
Time: 18:12:00
(UTC+00:00)

Cosmos 1844 Rocket - Pass Details

Date: 07 June 2020
Orbit: 825 x 843 km, 71.0° (Epoch: 04 July)

Event Time Altitude Azimuth Distance (km) Brightness Sun altitude
Rises 01:58:54 0° 339° (NNW) 3,387 6.3 -15.4°
Reaches altitude 10° 02:01:25 10° 343° (NNW) 2,447 5.6 -15.1°
Maximum altitude 02:06:55 56° 62° (ENE) 980 3.4 -14.5°
Drops below altitude 10° 02:12:22 10° 140° (SE) 2,423 5.0 -13.8°
Sets 02:14:50 0° 145° (SE) 3,351 5.7 -13.5°
